Weather History for Louisville Bowman, KY

Change the Weather History Date:

Wednesday, November 21, 2012

  Actual Average Record
Temperature  
Mean Temperature 54 °F 45 °F  
Max Temperature 64 °F 54 °F 74 °F (1990)
Min Temperature 43 °F 37 °F 17 °F (1964)
Degree Days  
Heating Degree Days 11 20  
Month to date heating degree days 403 330  
Since 1 July heating degree days 720 606  
Cooling Degree Days 0 0  
Month to date cooling degree days 0 0  
Year to date cooling degree days 1851 1442  
Growing Degree Days 4 (Base 50)    
Moisture  
Dew Point 41 °F    
Average Humidity 62    
Maximum Humidity 83    
Minimum Humidity 40    
Precipitation  
Precipitation 0.00 in 0.12 in 0.86 in (1992)
Month to date precipitation 0.80 2.49  
Year to date precipitation 38.46 40.41  
Sea Level Pressure  
Sea Level Pressure 30.20 in    
Wind  
Wind Speed 2 mph (North)    
Max Wind Speed 8 mph    
Max Gust Speed 10 mph    
Visibility 8 miles    
Events      
T = Trace of Precipitation, MM = Missing Value Source: NWS Daily Summary

Daily Weather History Graph

Daily Weather History Graph

Search for Another Location

Airport:

Trip Planner

Search our weather history database for the weather conditions in past years. The results will help you decide how hot, cold, wet, or windy it might be!

Date:

Astronomy

Nov. 21, 2012 Rise Set
Actual Time 7:30 AM EST 5:26 PM EST
Civil Twilight 7:02 AM EST 5:54 PM EST
Nautical Twilight 6:29 AM EST 6:27 PM EST
Astronomical Twilight 5:58 AM EST 6:58 PM EST
Moon 1:37 PM EST (11/21) 12:54 AM EST (11/21)
Length of Visible Light 10h 52m
Length of Day
9h 55m
First Quarter, 61% of the Moon is Illuminated
Nov 21
First Quarter
Nov 28
Full
Dec 6
Last Quarter
Dec 13
New
Dec 20
First Quarter

Hourly Weather History & Observations

Time (EST) Temp. Dew Point Humidity Pressure Visibility Wind Dir Wind Speed Gust Speed Precip Events Conditions
12:53 AM 52.0 °F 41.0 °F 66% 30.13 in 10.0 mi NNW 3.5 mph - N/A   Scattered Clouds
1:53 AM 50.0 °F 39.9 °F 68% 30.13 in 10.0 mi Calm Calm - N/A   Clear
2:53 AM 48.9 °F 41.0 °F 74% 30.14 in 10.0 mi North 4.6 mph - N/A   Scattered Clouds
3:53 AM 48.9 °F 41.0 °F 74% 30.14 in 9.0 mi North 4.6 mph - N/A   Clear
4:53 AM 48.9 °F 41.0 °F 74% 30.16 in 8.0 mi Calm Calm - N/A   Overcast
5:53 AM 48.9 °F 42.1 °F 77% 30.18 in 8.0 mi North 4.6 mph - N/A   Overcast
6:53 AM 48.9 °F 42.1 °F 77% 30.19 in 7.0 mi NNE 3.5 mph - N/A   Overcast
7:53 AM 48.9 °F 42.1 °F 77% 30.21 in 6.0 mi Calm Calm - N/A   Haze
8:53 AM 50.0 °F 43.0 °F 77% 30.23 in 5.0 mi NNW 5.8 mph - N/A   Haze
9:53 AM 51.1 °F 42.1 °F 71% 30.25 in 5.0 mi North 5.8 mph - N/A   Haze
10:53 AM 53.1 °F 43.0 °F 69% 30.25 in 6.0 mi NNE 3.5 mph - N/A   Haze
11:53 AM 55.9 °F 42.1 °F 60% 30.25 in 7.0 mi Calm Calm - N/A   Overcast
12:53 PM 57.9 °F 42.1 °F 56% 30.23 in 9.0 mi Calm Calm - N/A   Mostly Cloudy
1:53 PM 60.1 °F 39.9 °F 47% 30.22 in 10.0 mi Calm Calm - N/A   Clear
2:53 PM 64.0 °F 39.0 °F 40% 30.20 in 10.0 mi Calm Calm - N/A   Clear
3:53 PM 63.0 °F 39.9 °F 43% 30.21 in 10.0 mi Calm Calm - N/A   Clear
4:53 PM 62.1 °F 39.9 °F 44% 30.21 in 10.0 mi NNW 3.5 mph - N/A   Clear
5:53 PM 57.0 °F 39.0 °F 51% 30.21 in 10.0 mi Calm Calm - N/A   Clear
6:53 PM 53.1 °F 39.9 °F 61% 30.22 in 10.0 mi Calm Calm - N/A   Clear
7:53 PM 50.0 °F 39.9 °F 68% 30.22 in 10.0 mi Calm Calm - N/A   Clear
8:53 PM 50.0 °F 39.9 °F 68% 30.22 in 10.0 mi Calm Calm - N/A   Clear
9:53 PM 46.0 °F 39.9 °F 79% 30.22 in 9.0 mi Calm Calm - N/A   Clear
10:53 PM 45.0 °F 39.9 °F 82% 30.22 in 8.0 mi Calm Calm - N/A   Clear
11:53 PM 43.0 °F 39.0 °F 86% 30.22 in 7.0 mi Calm Calm - N/A   Clear